Time,TemperatureF,DewpointF,PressureIn,WindDirection,WindDirectionDegrees,WindSpeedMPH,WindSpeedGustMPH,Humidity,HourlyPrecipIn,Conditions,Clouds,dailyrainin,SoftwareType,DateUTC
2013-03-31 00:00:00,52.5,40.3,29.83,NNW,336,6.0,7.0,63,0.00,SCT,,0.00,WeatherDisplay:10.37,2013-03-31 05:00:00,
2013-03-31 00:05:00,52.0,40.2,29.83,NNW,336,5.0,7.0,64,0.00,BKN,,0.00,WeatherDisplay:10.37,2013-03-31 05:05:00,
2013-03-31 00:10:00,51.6,40.3,29.83,NNW,337,5.0,6.0,65,0.00,BKN,,0.00,WeatherDisplay:10.37,2013-03-31 05:10:00,
2013-03-31 00:15:00,51.6,40.6,29.84,NNW,337,5.0,6.0,66,0.00,BKN,,0.00,WeatherDisplay:10.37,2013-03-31 05:15:00,
2013-03-31 00:20:00,51.6,40.6,29.84,NNW,336,5.0,6.0,66,0.00,BKN,,0.00,WeatherDisplay:10.37,2013-03-31 05:20:00,
2013-03-31 00:25:00,51.4,40.4,29.84,NNW,333,5.0,7.0,66,0.00,BKN,,0.00,WeatherDisplay:10.37,2013-03-31 05:25:00,
2013-03-31 00:30:00,51.4,40.8,29.84,NNW,330,5.0,6.0,67,0.00,BKN,,0.00,WeatherDisplay:10.37,2013-03-31 05:30:00,
2013-03-31 00:40:00,51.4,41.1,29.84,NNW,329,5.0,6.0,68,0.00,BKN,,0.00,WeatherDisplay:10.37,2013-03-31 05:40:00,
2013-03-31 00:45:00,51.3,41.4,29.84,NNW,329,3.0,6.0,69,0.00,BKN,,0.00,WeatherDisplay:10.37,2013-03-31 05:45:00,
2013-03-31 00:50:00,51.2,41.4,29.84,NNW,329,5.0,6.0,69,0.00,BKN,,0.00,WeatherDisplay:10.37,2013-03-31 05:50:00,
2013-03-31 00:55:00,51.3,41.4,29.85,NNW,329,5.0,6.0,69,0.00,BKN,,0.00,WeatherDisplay:10.37,2013-03-31 05:55:00,
2013-03-31 01:00:00,51.1,41.6,29.85,NNW,330,5.0,6.0,70,0.00,BKN,,0.00,WeatherDisplay:10.37,2013-03-31 06:00:00,
2013-03-31 01:10:00,50.9,41.8,29.85,NNW,337,5.0,6.0,71,0.00,SCT,,0.00,WeatherDisplay:10.37,2013-03-31 06:10:00,
2013-03-31 01:15:00,50.9,42.2,29.85,NNW,337,3.0,6.0,72,0.00,SCT,,0.00,WeatherDisplay:10.37,2013-03-31 06:15:00,
2013-03-31 01:20:00,50.8,42.1,29.85,NNW,337,2.0,5.0,72,0.00,SCT,,0.00,WeatherDisplay:10.37,2013-03-31 06:20:00,
2013-03-31 01:25:00,50.7,42.0,29.85,NNW,337,2.0,4.0,72,0.00,SCT,,0.00,WeatherDisplay:10.37,2013-03-31 06:25:00,
2013-03-31 01:30:00,50.7,42.3,29.85,NNW,337,3.0,4.0,73,0.00,SCT,,0.00,WeatherDisplay:10.37,2013-03-31 06:30:00,
2013-03-31 01:35:00,50.6,42.2,29.86,NNW,337,3.0,4.0,73,0.00,SCT,,0.00,WeatherDisplay:10.37,2013-03-31 06:35:00,
2013-03-31 01:40:00,50.3,42.0,29.86,NW,322,5.0,6.0,73,0.00,SCT,,0.00,WeatherDisplay:10.37,2013-03-31 06:40:00,
2013-03-31 01:45:00,50.0,41.7,29.87,NW,306,5.0,6.0,73,0.00,SCT,,0.00,WeatherDisplay:10.37,2013-03-31 06:45:00,
2013-03-31 01:50:00,49.8,41.5,29.86,NW,312,3.0,5.0,73,0.00,SCT,,0.00,WeatherDisplay:10.37,2013-03-31 06:50:00,
2013-03-31 01:55:00,49.7,41.8,29.86,NW,321,5.0,7.0,74,0.00,SCT,,0.00,WeatherDisplay:10.37,2013-03-31 06:55:00,
2013-03-31 02:00:00,49.9,41.9,29.87,NW,321,5.0,8.0,74,0.00,SCT,,0.00,WeatherDisplay:10.37,2013-03-31 07:00:00,
2013-03-31 02:10:00,50.0,42.0,29.87,NW,314,3.0,5.0,74,0.00,OVC,,0.00,WeatherDisplay:10.37,2013-03-31 07:10:00,
2013-03-31 02:15:00,50.1,42.1,29.88,NW,308,5.0,6.0,74,0.00,OVC,,0.00,WeatherDisplay:10.37,2013-03-31 07:15:00,
2013-03-31 02:20:00,50.2,42.2,29.88,NW,307,5.0,7.0,74,0.00,OVC,,0.00,WeatherDisplay:10.37,2013-03-31 07:20:00,
2013-03-31 02:25:00,50.4,42.1,29.88,NW,307,3.0,5.0,73,0.00,OVC,,0.00,WeatherDisplay:10.37,2013-03-31 07:25:00,
2013-03-31 02:30:00,50.5,42.1,29.88,WNW,303,2.0,5.0,73,0.00,OVC,,0.00,WeatherDisplay:10.37,2013-03-31 07:30:00,
2013-03-31 02:35:00,50.5,42.2,29.88,WNW,302,1.0,4.0,73,0.00,OVC,,0.00,WeatherDisplay:10.37,2013-03-31 07:35:00,
2013-03-31 02:40:00,50.5,42.1,29.88,West,280,3.0,5.0,73,0.00,OVC,,0.00,WeatherDisplay:10.37,2013-03-31 07:40:00,
2013-03-31 02:45:00,50.5,42.1,29.88,West,260,1.0,3.0,73,0.00,OVC,,0.00,WeatherDisplay:10.37,2013-03-31 07:45:00,
2013-03-31 02:50:00,50.4,42.1,29.88,West,264,1.0,5.0,73,0.00,OVC,,0.00,WeatherDisplay:10.37,2013-03-31 07:50:00,
2013-03-31 02:55:00,50.4,42.0,29.88,West,264,2.0,4.0,73,0.00,OVC,,0.00,WeatherDisplay:10.37,2013-03-31 07:55:00,
2013-03-31 03:00:00,50.4,41.7,29.88,West,264,2.0,5.0,72,0.00,OVC,,0.00,WeatherDisplay:10.37,2013-03-31 08:00:00,
2013-03-31 03:10:00,50.7,41.3,29.87,WNW,287,2.0,4.0,70,0.00,-RA,,0.00,WeatherDisplay:10.37,2013-03-31 08:10:00,
2013-03-31 03:15:00,50.8,41.3,29.87,WNW,288,1.0,3.0,70,0.00,-RA,,0.00,WeatherDisplay:10.37,2013-03-31 08:15:00,
2013-03-31 03:20:00,50.7,41.2,29.88,WNW,288,2.0,4.0,70,0.00,-RA,,0.00,WeatherDisplay:10.37,2013-03-31 08:20:00,
2013-03-31 03:25:00,50.7,40.9,29.88,WNW,291,3.0,5.0,69,0.00,-RA,,0.00,WeatherDisplay:10.37,2013-03-31 08:25:00,
2013-03-31 03:30:00,50.7,41.2,29.88,WNW,293,2.0,4.0,70,0.00,-RA,,0.00,WeatherDisplay:10.37,2013-03-31 08:30:00,
2013-03-31 03:35:00,50.6,40.8,29.87,WNW,294,2.0,4.0,69,0.00,-RA,,0.00,WeatherDisplay:10.37,2013-03-31 08:35:00,
2013-03-31 03:40:00,50.6,40.8,29.87,West,259,2.0,5.0,69,0.00,-RA,,0.00,WeatherDisplay:10.37,2013-03-31 08:40:00,
2013-03-31 03:45:00,50.5,41.0,29.87,SW,227,5.0,6.0,70,0.00,-RA,,0.00,WeatherDisplay:10.37,2013-03-31 08:45:00,
2013-03-31 03:50:00,50.3,40.8,29.87,SW,227,3.0,6.0,70,0.00,-RA,,0.00,WeatherDisplay:10.37,2013-03-31 08:50:00,
2013-03-31 04:00:00,50.3,40.5,29.87,WSW,253,3.0,6.0,69,0.00,-RA,,0.00,WeatherDisplay:10.37,2013-03-31 09:00:00,
2013-03-31 04:10:00,50.3,40.5,29.87,West,268,3.0,6.0,69,0.00,OVC,,0.00,WeatherDisplay:10.37,2013-03-31 09:10:00,
2013-03-31 04:15:00,50.3,40.5,29.86,West,274,3.0,6.0,69,0.00,OVC,,0.00,WeatherDisplay:10.37,2013-03-31 09:15:00,
2013-03-31 04:20:00,50.2,40.4,29.86,WNW,282,3.0,5.0,69,0.00,OVC,,0.00,WeatherDisplay:10.37,2013-03-31 09:20:00,
2013-03-31 04:25:00,50.0,40.2,29.86,WNW,286,5.0,7.0,69,0.00,OVC,,0.00,WeatherDisplay:10.37,2013-03-31 09:25:00,
2013-03-31 04:30:00,50.0,40.2,29.86,WNW,282,5.0,7.0,69,0.00,OVC,,0.00,WeatherDisplay:10.37,2013-03-31 09:30:00,
2013-03-31 04:35:00,49.9,40.5,29.86,West,277,5.0,6.0,70,0.00,OVC,,0.00,WeatherDisplay:10.37,2013-03-31 09:35:00,
2013-03-31 04:40:00,49.6,40.2,29.86,West,278,5.0,6.0,70,0.00,OVC,,0.00,WeatherDisplay:10.37,2013-03-31 09:40:00,
2013-03-31 04:45:00,49.4,40.4,29.86,West,278,5.0,7.0,71,0.00,OVC,,0.00,WeatherDisplay:10.37,2013-03-31 09:45:00,
2013-03-31 04:50:00,49.4,40.8,29.85,West,273,3.0,5.0,72,0.00,OVC,,0.00,WeatherDisplay:10.37,2013-03-31 09:50:00,
2013-03-31 05:00:00,49.5,41.5,29.86,WNW,291,5.0,6.0,74,0.00,OVC,,0.00,WeatherDisplay:10.37,2013-03-31 10:00:00,
2013-03-31 05:10:00,49.4,41.8,29.86,WNW,291,5.0,7.0,75,0.00,OVC,,0.00,WeatherDisplay:10.37,2013-03-31 10:10:00,
2013-03-31 05:15:00,49.2,41.6,29.86,WNW,287,3.0,5.0,75,0.00,OVC,,0.00,WeatherDisplay:10.37,2013-03-31 10:15:00,
2013-03-31 05:20:00,49.2,41.6,29.86,WNW,291,3.0,7.0,75,0.00,OVC,,0.00,WeatherDisplay:10.37,2013-03-31 10:20:00,
2013-03-31 05:30:00,49.2,41.9,29.86,WNW,294,2.0,4.0,76,0.00,OVC,,0.00,WeatherDisplay:10.37,2013-03-31 10:30:00,
2013-03-31 05:40:00,49.0,42.1,29.86,WNW,289,2.0,4.0,77,0.00,OVC,,0.00,WeatherDisplay:10.37,2013-03-31 10:40:00,
2013-03-31 05:45:00,49.1,42.2,29.86,WNW,291,2.0,4.0,77,0.00,OVC,,0.00,WeatherDisplay:10.37,2013-03-31 10:45:00,
2013-03-31 05:50:00,49.1,42.2,29.86,WNW,290,1.0,3.0,77,0.00,OVC,,0.00,WeatherDisplay:10.37,2013-03-31 10:50:00,
2013-03-31 05:55:00,49.0,42.1,29.86,WNW,288,2.0,3.0,77,0.00,OVC,,0.00,WeatherDisplay:10.37,2013-03-31 10:55:00,
2013-03-31 06:00:00,48.9,42.0,29.86,WNW,288,1.0,3.0,77,0.00,OVC,,0.00,WeatherDisplay:10.37,2013-03-31 11:00:00,
2013-03-31 06:10:00,48.4,41.5,29.86,West,271,3.0,5.0,77,0.00,OVC,,0.00,WeatherDisplay:10.37,2013-03-31 11:10:00,
2013-03-31 06:15:00,48.5,41.6,29.86,West,271,3.0,6.0,77,0.00,OVC,,0.00,WeatherDisplay:10.37,2013-03-31 11:15:00,
2013-03-31 06:20:00,48.6,41.7,29.86,West,273,2.0,4.0,77,0.00,OVC,,0.00,WeatherDisplay:10.37,2013-03-31 11:20:00,
2013-03-31 06:25:00,48.4,41.2,29.86,West,271,2.0,4.0,76,0.00,OVC,,0.00,WeatherDisplay:10.37,2013-03-31 11:25:00,
2013-03-31 06:30:00,48.4,41.5,29.86,West,274,3.0,5.0,77,0.00,OVC,,0.00,WeatherDisplay:10.37,2013-03-31 11:30:00,
2013-03-31 06:40:00,48.5,41.2,29.87,WNW,282,3.0,5.0,76,0.00,OVC,,0.00,WeatherDisplay:10.37,2013-03-31 11:40:00,
2013-03-31 06:45:00,48.3,41.1,29.87,WNW,289,3.0,5.0,76,0.00,OVC,,0.00,WeatherDisplay:10.37,2013-03-31 11:45:00,
2013-03-31 06:50:00,48.0,40.8,29.87,WNW,291,3.0,4.0,76,0.00,OVC,,0.00,WeatherDisplay:10.37,2013-03-31 11:50:00,
2013-03-31 06:55:00,47.7,40.5,29.87,WNW,293,2.0,4.0,76,0.00,OVC,,0.00,WeatherDisplay:10.37,2013-03-31 11:55:00,
2013-03-31 07:00:00,47.5,40.6,29.87,WNW,292,3.0,5.0,77,0.00,OVC,,0.00,WeatherDisplay:10.37,2013-03-31 12:00:00,
2013-03-31 07:10:00,47.6,40.4,29.88,WNW,294,3.0,5.0,76,0.00,BKN,,0.00,WeatherDisplay:10.37,2013-03-31 12:10:00,
2013-03-31 07:15:00,47.5,40.3,29.88,WNW,295,3.0,4.0,76,0.00,BKN,,0.00,WeatherDisplay:10.37,2013-03-31 12:15:00,
2013-03-31 07:20:00,47.4,39.8,29.88,WNW,295,3.0,4.0,75,0.00,BKN,,0.00,WeatherDisplay:10.37,2013-03-31 12:20:00,
2013-03-31 07:25:00,47.3,39.7,29.88,WNW,295,2.0,4.0,75,0.00,BKN,,0.00,WeatherDisplay:10.37,2013-03-31 12:25:00,
2013-03-31 07:30:00,47.4,39.8,29.88,WNW,295,2.0,4.0,75,0.00,BKN,,0.00,WeatherDisplay:10.37,2013-03-31 12:30:00,
2013-03-31 07:40:00,47.7,39.9,29.88,WNW,295,1.0,3.0,74,0.00,BKN,,0.00,WeatherDisplay:10.37,2013-03-31 12:40:00,
2013-03-31 07:45:00,48.0,39.7,29.87,WNW,295,1.0,3.0,73,0.00,BKN,,0.00,WeatherDisplay:10.37,2013-03-31 12:45:00,
2013-03-31 07:50:00,48.3,40.0,29.88,WNW,295,1.0,3.0,73,0.00,BKN,,0.00,WeatherDisplay:10.37,2013-03-31 12:50:00,
2013-03-31 07:55:00,48.6,39.9,29.88,WNW,295,1.0,3.0,72,0.00,BKN,,0.00,WeatherDisplay:10.37,2013-03-31 12:55:00,
2013-03-31 08:00:00,48.8,40.2,29.87,WNW,295,2.0,3.0,72,0.00,BKN,,0.00,WeatherDisplay:10.37,2013-03-31 13:00:00,
2013-03-31 08:10:00,49.3,40.3,29.87,WNW,295,2.0,3.0,71,0.00,CLR,,0.00,WeatherDisplay:10.37,2013-03-31 13:10:00,
2013-03-31 08:15:00,49.6,40.6,29.87,WNW,295,2.0,4.0,71,0.00,CLR,,0.00,WeatherDisplay:10.37,2013-03-31 13:15:00,
2013-03-31 08:20:00,49.9,40.5,29.87,WNW,295,2.0,4.0,70,0.00,CLR,,0.00,WeatherDisplay:10.37,2013-03-31 13:20:00,
2013-03-31 08:25:00,50.3,40.5,29.87,WNW,289,3.0,6.0,69,0.00,CLR,,0.00,WeatherDisplay:10.37,2013-03-31 13:25:00,
2013-03-31 08:30:00,50.7,40.6,29.87,WNW,288,5.0,6.0,68,0.00,CLR,,0.00,WeatherDisplay:10.37,2013-03-31 13:30:00,
2013-03-31 08:40:00,51.6,40.6,29.87,WNW,295,3.0,8.0,66,0.00,CLR,,0.00,WeatherDisplay:10.37,2013-03-31 13:40:00,
2013-03-31 08:45:00,51.8,40.8,29.87,WNW,288,5.0,6.0,66,0.00,CLR,,0.00,WeatherDisplay:10.37,2013-03-31 13:45:00,
2013-03-31 08:50:00,51.9,40.5,29.87,WNW,283,3.0,6.0,65,0.00,CLR,,0.00,WeatherDisplay:10.37,2013-03-31 13:50:00,
2013-03-31 08:55:00,52.1,40.7,29.87,WNW,285,5.0,7.0,65,0.00,CLR,,0.00,WeatherDisplay:10.37,2013-03-31 13:55:00,
2013-03-31 09:00:00,52.4,40.9,29.87,WNW,290,5.0,9.0,65,0.00,CLR,,0.00,WeatherDisplay:10.37,2013-03-31 14:00:00,
2013-03-31 09:10:00,52.9,40.7,29.87,WNW,289,5.0,7.0,63,0.00,CLR,,0.00,WeatherDisplay:10.37,2013-03-31 14:10:00,
2013-03-31 09:15:00,53.3,40.1,29.87,WNW,293,6.0,8.0,61,0.00,CLR,,0.00,WeatherDisplay:10.37,2013-03-31 14:15:00,
2013-03-31 09:20:00,53.5,40.4,29.87,WNW,289,3.0,7.0,61,0.00,CLR,,0.00,WeatherDisplay:10.37,2013-03-31 14:20:00,
2013-03-31 09:25:00,53.7,40.6,29.87,WNW,283,3.0,6.0,61,0.00,CLR,,0.00,WeatherDisplay:10.37,2013-03-31 14:25:00,
2013-03-31 09:30:00,54.4,40.8,29.87,WNW,283,3.0,7.0,60,0.00,CLR,,0.00,WeatherDisplay:10.37,2013-03-31 14:30:00,
2013-03-31 09:40:00,54.7,40.6,29.88,WNW,302,10.0,14.0,59,0.00,CLR,,0.00,WeatherDisplay:10.37,2013-03-31 14:40:00,
2013-03-31 09:45:00,54.6,41.4,29.87,WNW,297,7.0,12.0,61,0.00,CLR,,0.00,WeatherDisplay:10.37,2013-03-31 14:45:00,
2013-03-31 09:50:00,54.7,41.0,29.87,WNW,292,7.0,11.0,60,0.00,CLR,,0.00,WeatherDisplay:10.37,2013-03-31 14:50:00,
2013-03-31 10:00:00,54.5,41.7,29.87,WNW,298,7.0,13.0,62,0.00,CLR,,0.00,WeatherDisplay:10.37,2013-03-31 15:00:00,
2013-03-31 10:05:00,55.1,41.8,29.87,WNW,296,8.0,12.0,61,0.00,CLR,,0.00,WeatherDisplay:10.37,2013-03-31 15:05:00,
2013-03-31 10:10:00,55.4,42.2,29.87,WNW,296,5.0,12.0,61,0.00,CLR,,0.00,WeatherDisplay:10.37,2013-03-31 15:10:00,
2013-03-31 10:15:00,55.9,42.6,29.87,WNW,294,7.0,9.0,61,0.00,CLR,,0.00,WeatherDisplay:10.37,2013-03-31 15:15:00,
2013-03-31 10:20:00,56.3,41.7,29.87,WNW,295,7.0,13.0,58,0.00,CLR,,0.00,WeatherDisplay:10.37,2013-03-31 15:20:00,
2013-03-31 10:25:00,56.4,41.8,29.86,WNW,297,8.0,13.0,58,0.00,CLR,,0.00,WeatherDisplay:10.37,2013-03-31 15:25:00,
2013-03-31 10:30:00,56.7,42.0,29.86,WNW,294,6.0,13.0,58,0.00,CLR,,0.00,WeatherDisplay:10.37,2013-03-31 15:30:00,
2013-03-31 10:40:00,57.6,42.0,29.86,WNW,302,9.0,13.0,56,0.00,CLR,,0.00,WeatherDisplay:10.37,2013-03-31 15:40:00,
2013-03-31 10:45:00,57.4,42.3,29.86,WNW,301,9.0,13.0,57,0.00,CLR,,0.00,WeatherDisplay:10.37,2013-03-31 15:45:00,
2013-03-31 10:50:00,57.8,42.7,29.86,NW,305,8.0,14.0,57,0.00,CLR,,0.00,WeatherDisplay:10.37,2013-03-31 15:50:00,
2013-03-31 11:00:00,58.0,41.4,29.86,NW,304,10.0,15.0,54,0.00,CLR,,0.00,WeatherDisplay:10.37,2013-03-31 16:00:00,
2013-03-31 11:10:00,58.3,40.7,29.86,WNW,301,10.0,16.0,52,0.00,CLR,,0.00,WeatherDisplay:10.37,2013-03-31 16:10:00,
2013-03-31 11:15:00,58.4,40.3,29.86,WNW,300,10.0,15.0,51,0.00,CLR,,0.00,WeatherDisplay:10.37,2013-03-31 16:15:00,
2013-03-31 11:20:00,58.4,40.8,29.87,WNW,302,9.0,16.0,52,0.00,CLR,,0.00,WeatherDisplay:10.37,2013-03-31 16:20:00,
2013-03-31 11:25:00,58.7,41.1,29.87,WNW,303,7.0,15.0,52,0.00,CLR,,0.00,WeatherDisplay:10.37,2013-03-31 16:25:00,
2013-03-31 11:30:00,58.8,40.2,29.87,WNW,296,10.0,16.0,50,0.00,CLR,,0.00,WeatherDisplay:10.37,2013-03-31 16:30:00,
2013-03-31 11:40:00,58.7,41.1,29.87,WNW,294,10.0,18.0,52,0.00,CLR,,0.00,WeatherDisplay:10.37,2013-03-31 16:40:00,
2013-03-31 11:45:00,58.8,40.7,29.87,WNW,300,12.0,15.0,51,0.00,CLR,,0.00,WeatherDisplay:10.37,2013-03-31 16:45:00,
2013-03-31 11:50:00,59.5,41.8,29.87,NW,307,10.0,15.0,52,0.00,CLR,,0.00,WeatherDisplay:10.37,2013-03-31 16:50:00,
2013-03-31 12:00:00,58.2,41.6,29.88,NW,325,13.0,18.0,54,0.00,CLR,,0.00,WeatherDisplay:10.37,2013-03-31 17:00:00,
2013-03-31 12:10:00,58.6,42.0,29.88,NW,306,9.0,17.0,54,0.00,CLR,,0.00,WeatherDisplay:10.37,2013-03-31 17:10:00,
2013-03-31 12:20:00,58.3,41.2,29.88,NW,315,14.0,17.0,53,0.00,CLR,,0.00,WeatherDisplay:10.37,2013-03-31 17:20:00,
2013-03-31 12:30:00,59.2,42.0,29.88,NW,324,16.0,23.0,53,0.00,CLR,,0.00,WeatherDisplay:10.37,2013-03-31 17:30:00,
2013-03-31 12:40:00,57.9,40.3,29.88,NNW,329,13.0,20.0,52,0.00,CLR,,0.00,WeatherDisplay:10.37,2013-03-31 17:40:00,
2013-03-31 12:45:00,58.2,40.7,29.88,NNW,328,12.0,16.0,52,0.00,CLR,,0.00,WeatherDisplay:10.37,2013-03-31 17:45:00,
2013-03-31 12:50:00,58.1,40.6,29.88,NNW,328,14.0,18.0,52,0.00,CLR,,0.00,WeatherDisplay:10.37,2013-03-31 17:50:00,
2013-03-31 12:55:00,58.4,40.8,29.88,NNW,332,12.0,20.0,52,0.00,CLR,,0.00,WeatherDisplay:10.37,2013-03-31 17:55:00,
2013-03-31 13:00:00,58.7,41.1,29.88,NNW,335,12.0,21.0,52,0.00,CLR,,0.00,WeatherDisplay:10.37,2013-03-31 18:00:00,
2013-03-31 13:10:00,58.8,39.2,29.88,NNW,328,10.0,16.0,48,0.00,CLR,,0.00,WeatherDisplay:10.37,2013-03-31 18:10:00,
2013-03-31 13:20:00,59.0,40.3,29.88,NW,319,12.0,16.0,50,0.00,CLR,,0.00,WeatherDisplay:10.37,2013-03-31 18:20:00,
2013-03-31 13:25:00,59.5,40.8,29.88,NNW,328,12.0,16.0,50,0.00,CLR,,0.00,WeatherDisplay:10.37,2013-03-31 18:25:00,
2013-03-31 13:30:00,59.6,39.9,29.88,NNW,335,14.0,20.0,48,0.00,CLR,,0.00,WeatherDisplay:10.37,2013-03-31 18:30:00,
2013-03-31 13:40:00,60.2,38.2,29.88,NNW,330,12.0,17.0,44,0.00,CLR,,0.00,WeatherDisplay:10.37,2013-03-31 18:40:00,
2013-03-31 13:45:00,60.5,37.9,29.88,NW,324,12.0,16.0,43,0.00,CLR,,0.00,WeatherDisplay:10.37,2013-03-31 18:45:00,
2013-03-31 13:50:00,60.3,36.5,29.87,NW,312,12.0,20.0,41,0.00,CLR,,0.00,WeatherDisplay:10.37,2013-03-31 18:50:00,
2013-03-31 14:00:00,60.8,37.6,29.87,NW,307,10.0,16.0,42,0.00,CLR,,0.00,WeatherDisplay:10.37,2013-03-31 19:00:00,
2013-03-31 14:10:00,59.6,35.8,29.88,NW,308,12.0,17.0,41,0.00,CLR,,0.00,WeatherDisplay:10.37,2013-03-31 19:10:00,
2013-03-31 14:15:00,60.1,36.9,29.88,NW,310,13.0,20.0,42,0.00,CLR,,0.00,WeatherDisplay:10.37,2013-03-31 19:15:00,
2013-03-31 14:20:00,60.1,34.4,29.88,NW,318,14.0,18.0,38,0.00,CLR,,0.00,WeatherDisplay:10.37,2013-03-31 19:20:00,
2013-03-31 14:30:00,60.6,33.5,29.88,NW,325,10.0,20.0,36,0.00,CLR,,0.00,WeatherDisplay:10.37,2013-03-31 19:30:00,
2013-03-31 14:40:00,60.2,34.5,29.88,NNW,329,12.0,17.0,38,0.00,CLR,,0.00,WeatherDisplay:10.37,2013-03-31 19:40:00,
2013-03-31 14:45:00,60.1,32.3,29.88,NW,324,10.0,16.0,35,0.00,CLR,,0.00,WeatherDisplay:10.37,2013-03-31 19:45:00,
2013-03-31 14:50:00,60.6,32.8,29.88,NNW,329,13.0,19.0,35,0.00,CLR,,0.00,WeatherDisplay:10.37,2013-03-31 19:50:00,
2013-03-31 14:55:00,60.3,31.1,29.88,NNW,331,16.0,20.0,33,0.00,CLR,,0.00,WeatherDisplay:10.37,2013-03-31 19:55:00,
2013-03-31 15:00:00,60.1,33.7,29.87,NNW,335,12.0,18.0,37,0.00,CLR,,0.00,WeatherDisplay:10.37,2013-03-31 20:00:00,
2013-03-31 15:10:00,60.0,32.2,29.88,NW,323,12.0,18.0,35,0.00,CLR,,0.00,WeatherDisplay:10.37,2013-03-31 20:10:00,
2013-03-31 15:15:00,60.1,30.8,29.88,NW,319,10.0,17.0,33,0.00,CLR,,0.00,WeatherDisplay:10.37,2013-03-31 20:15:00,
2013-03-31 15:20:00,60.1,31.6,29.87,NW,316,13.0,18.0,34,0.00,CLR,,0.00,WeatherDisplay:10.37,2013-03-31 20:20:00,
2013-03-31 15:25:00,60.1,32.3,29.87,NW,320,8.0,15.0,35,0.00,CLR,,0.00,WeatherDisplay:10.37,2013-03-31 20:25:00,
2013-03-31 15:30:00,60.8,32.9,29.87,NW,323,9.0,15.0,35,0.00,CLR,,0.00,WeatherDisplay:10.37,2013-03-31 20:30:00,
2013-03-31 15:35:00,60.9,31.6,29.87,NW,318,10.0,17.0,33,0.00,CLR,,0.00,WeatherDisplay:10.37,2013-03-31 20:35:00,
2013-03-31 15:45:00,60.5,28.9,29.87,NNW,329,16.0,20.0,30,0.00,CLR,,0.00,WeatherDisplay:10.37,2013-03-31 20:45:00,
2013-03-31 15:55:00,60.7,29.8,29.87,NW,326,12.0,14.0,31,0.00,CLR,,0.00,WeatherDisplay:10.37,2013-03-31 20:55:00,
2013-03-31 16:00:00,60.8,30.0,29.87,NW,323,12.0,16.0,31,0.00,CLR,,0.00,WeatherDisplay:10.37,2013-03-31 21:00:00,
2013-03-31 16:10:00,60.5,27.2,29.87,NW,310,14.0,20.0,28,0.00,CLR,,0.00,WeatherDisplay:10.37,2013-03-31 21:10:00,
2013-03-31 16:15:00,60.6,29.0,29.87,NW,314,15.0,17.0,30,0.00,CLR,,0.00,WeatherDisplay:10.37,2013-03-31 21:15:00,
2013-03-31 16:20:00,60.3,29.5,29.86,NNW,329,13.0,20.0,31,0.00,CLR,,0.00,WeatherDisplay:10.37,2013-03-31 21:20:00,
2013-03-31 16:25:00,60.1,28.5,29.87,NNW,332,10.0,20.0,30,0.00,CLR,,0.00,WeatherDisplay:10.37,2013-03-31 21:25:00,
2013-03-31 16:30:00,60.1,27.7,29.87,NNW,329,12.0,20.0,29,0.00,CLR,,0.00,WeatherDisplay:10.37,2013-03-31 21:30:00,
2013-03-31 16:35:00,60.3,28.7,29.87,NNW,332,13.0,17.0,30,0.00,CLR,,0.00,WeatherDisplay:10.37,2013-03-31 21:35:00,
2013-03-31 16:40:00,60.6,29.7,29.86,NNW,329,10.0,18.0,31,0.00,CLR,,0.00,WeatherDisplay:10.37,2013-03-31 21:40:00,
2013-03-31 16:45:00,60.6,29.0,29.86,NNW,328,7.0,15.0,30,0.00,CLR,,0.00,WeatherDisplay:10.37,2013-03-31 21:45:00,
2013-03-31 16:50:00,60.9,29.3,29.86,NNW,338,12.0,16.0,30,0.00,CLR,,0.00,WeatherDisplay:10.37,2013-03-31 21:50:00,
2013-03-31 17:00:00,60.4,26.2,29.86,NW,316,10.0,15.0,27,0.00,CLR,,0.00,WeatherDisplay:10.37,2013-03-31 22:00:00,
2013-03-31 17:05:00,60.3,25.2,29.86,NW,307,7.0,16.0,26,0.00,CLR,,0.00,WeatherDisplay:10.37,2013-03-31 22:05:00,
2013-03-31 17:15:00,59.7,24.7,29.86,NNW,330,10.0,15.0,26,0.00,CLR,,0.00,WeatherDisplay:10.37,2013-03-31 22:15:00,
2013-03-31 17:20:00,60.3,27.8,29.86,NNW,335,12.0,15.0,29,0.00,CLR,,0.00,WeatherDisplay:10.37,2013-03-31 22:20:00,
2013-03-31 17:30:00,60.0,27.6,29.86,NNW,339,9.0,13.0,29,0.00,CLR,,0.00,WeatherDisplay:10.37,2013-03-31 22:30:00,
2013-03-31 17:40:00,59.6,27.3,29.86,NNW,334,6.0,14.0,29,0.00,CLR,,0.00,WeatherDisplay:10.37,2013-03-31 22:40:00,
2013-03-31 17:45:00,60.0,26.7,29.86,NW,322,12.0,17.0,28,0.00,CLR,,0.00,WeatherDisplay:10.37,2013-03-31 22:45:00,
2013-03-31 17:50:00,59.9,25.8,29.86,NW,316,10.0,13.0,27,0.00,CLR,,0.00,WeatherDisplay:10.37,2013-03-31 22:50:00,
2013-03-31 17:55:00,59.6,27.3,29.86,NW,322,10.0,14.0,29,0.00,CLR,,0.00,WeatherDisplay:10.37,2013-03-31 22:55:00,
2013-03-31 18:00:00,59.5,27.1,29.86,NNW,328,13.0,16.0,29,0.00,CLR,,0.00,WeatherDisplay:10.37,2013-03-31 23:00:00,
2013-03-31 18:10:00,59.2,26.0,29.87,NNW,338,6.0,9.0,28,0.00,CLR,,0.00,WeatherDisplay:10.37,2013-03-31 23:10:00,
2013-03-31 18:15:00,59.3,26.1,29.86,NNW,338,7.0,11.0,28,0.00,CLR,,0.00,WeatherDisplay:10.37,2013-03-31 23:15:00,
2013-03-31 18:20:00,59.1,25.1,29.86,NNW,339,9.0,14.0,27,0.00,CLR,,0.00,WeatherDisplay:10.37,2013-03-31 23:20:00,
2013-03-31 18:25:00,59.0,25.0,29.87,NNW,336,7.0,13.0,27,0.00,CLR,,0.00,WeatherDisplay:10.37,2013-03-31 23:25:00,
2013-03-31 18:30:00,58.9,24.0,29.87,NNW,329,9.0,17.0,26,0.00,CLR,,0.00,WeatherDisplay:10.37,2013-03-31 23:30:00,
2013-03-31 18:35:00,58.7,23.8,29.87,NW,326,8.0,13.0,26,0.00,CLR,,0.00,WeatherDisplay:10.37,2013-03-31 23:35:00,
2013-03-31 18:40:00,58.6,23.7,29.87,NW,323,7.0,12.0,26,0.00,CLR,,0.00,WeatherDisplay:10.37,2013-03-31 23:40:00,
2013-03-31 18:45:00,58.6,24.6,29.87,NW,326,6.0,9.0,27,0.00,CLR,,0.00,WeatherDisplay:10.37,2013-03-31 23:45:00,
2013-03-31 18:50:00,58.4,23.6,29.87,NNW,330,6.0,8.0,26,0.00,CLR,,0.00,WeatherDisplay:10.37,2013-03-31 23:50:00,
2013-03-31 18:55:00,58.2,24.3,29.87,NNW,329,6.0,8.0,27,0.00,CLR,,0.00,WeatherDisplay:10.37,2013-03-31 23:55:00,
2013-03-31 19:00:00,57.9,25.8,29.87,NW,326,5.0,6.0,29,0.00,CLR,,0.00,WeatherDisplay:10.37,2013-04-01 00:00:00,
2013-03-31 19:10:00,57.4,24.5,29.87,NW,326,7.0,8.0,28,0.00,CLR,,0.00,WeatherDisplay:10.37,2013-04-01 00:10:00,
2013-03-31 19:15:00,57.1,25.9,29.87,NW,323,5.0,7.0,30,0.00,CLR,,0.00,WeatherDisplay:10.37,2013-04-01 00:15:00,
2013-03-31 19:20:00,56.7,25.5,29.87,NNW,327,5.0,6.0,30,0.00,CLR,,0.00,WeatherDisplay:10.37,2013-04-01 00:20:00,
2013-03-31 19:30:00,55.9,26.5,29.87,NNW,335,3.0,5.0,32,0.00,CLR,,0.00,WeatherDisplay:10.37,2013-04-01 00:30:00,
2013-03-31 19:40:00,55.4,26.7,29.87,NNW,335,3.0,4.0,33,0.00,CLR,,0.00,WeatherDisplay:10.37,2013-04-01 00:40:00,
2013-03-31 19:45:00,55.0,27.1,29.87,NNW,335,1.0,4.0,34,0.00,CLR,,0.00,WeatherDisplay:10.37,2013-04-01 00:45:00,
2013-03-31 19:50:00,54.7,26.1,29.87,NNW,335,0.0,1.0,33,0.00,CLR,,0.00,WeatherDisplay:10.37,2013-04-01 00:50:00,
2013-03-31 19:55:00,54.6,26.1,29.87,NNW,335,1.0,2.0,33,0.00,CLR,,0.00,WeatherDisplay:10.37,2013-04-01 00:55:00,
2013-03-31 20:00:00,54.6,26.0,29.87,NNW,335,1.0,2.0,33,0.00,CLR,,0.00,WeatherDisplay:10.37,2013-04-01 01:00:00,
2013-03-31 20:10:00,54.4,25.8,29.87,NNW,335,0.0,2.0,33,0.00,CLR,,0.00,WeatherDisplay:10.37,2013-04-01 01:10:00,
2013-03-31 20:15:00,54.3,26.5,29.87,NNW,335,0.0,2.0,34,0.00,CLR,,0.00,WeatherDisplay:10.37,2013-04-01 01:15:00,
2013-03-31 20:20:00,54.0,26.3,29.87,NNW,335,0.0,1.0,34,0.00,CLR,,0.00,WeatherDisplay:10.37,2013-04-01 01:20:00,
2013-03-31 20:25:00,53.8,26.0,29.87,NNW,335,0.0,0.0,34,0.00,CLR,,0.00,WeatherDisplay:10.37,2013-04-01 01:25:00,
2013-03-31 20:30:00,53.6,25.8,29.87,NNW,335,0.0,0.0,34,0.00,CLR,,0.00,WeatherDisplay:10.37,2013-04-01 01:30:00,
2013-03-31 20:40:00,53.1,26.1,29.87,NNW,335,0.0,0.0,35,0.00,CLR,,0.00,WeatherDisplay:10.37,2013-04-01 01:40:00,
2013-03-31 20:50:00,52.6,26.4,29.87,NNW,335,0.0,0.0,36,0.00,CLR,,0.00,WeatherDisplay:10.37,2013-04-01 01:50:00,
2013-03-31 20:55:00,52.4,26.2,29.87,NNW,335,0.0,0.0,36,0.00,CLR,,0.00,WeatherDisplay:10.37,2013-04-01 01:55:00,
2013-03-31 21:00:00,52.5,26.2,29.88,NNW,335,1.0,1.0,36,0.00,CLR,,0.00,WeatherDisplay:10.37,2013-04-01 02:00:00,
2013-03-31 21:10:00,52.6,26.3,29.88,NNW,335,0.0,0.0,36,0.00,CLR,,0.00,WeatherDisplay:10.37,2013-04-01 02:10:00,
2013-03-31 21:15:00,52.3,26.1,29.88,NNW,335,0.0,1.0,36,0.00,CLR,,0.00,WeatherDisplay:10.37,2013-04-01 02:15:00,
2013-03-31 21:20:00,52.0,26.5,29.88,NNW,335,0.0,1.0,37,0.00,CLR,,0.00,WeatherDisplay:10.37,2013-04-01 02:20:00,
2013-03-31 21:30:00,51.4,25.9,29.88,NNW,335,0.0,0.0,37,0.00,CLR,,0.00,WeatherDisplay:10.37,2013-04-01 02:30:00,
2013-03-31 21:40:00,51.4,26.6,29.87,NNW,335,1.0,2.0,38,0.00,CLR,,0.00,WeatherDisplay:10.37,2013-04-01 02:40:00,
2013-03-31 21:45:00,51.3,26.5,29.86,NNW,335,2.0,2.0,38,0.00,CLR,,0.00,WeatherDisplay:10.37,2013-04-01 02:45:00,
2013-03-31 21:50:00,51.3,25.9,29.87,North,11,2.0,3.0,37,0.00,CLR,,0.00,WeatherDisplay:10.37,2013-04-01 02:50:00,
2013-03-31 21:55:00,51.6,26.1,29.87,ENE,62,1.0,3.0,37,0.00,CLR,,0.00,WeatherDisplay:10.37,2013-04-01 02:55:00,
2013-03-31 22:00:00,51.3,26.6,29.88,ENE,72,1.0,2.0,38,0.00,CLR,,0.00,WeatherDisplay:10.37,2013-04-01 03:00:00,
2013-03-31 22:10:00,50.2,26.7,29.88,ENE,71,2.0,4.0,40,0.00,CLR,,0.00,WeatherDisplay:10.37,2013-04-01 03:10:00,
2013-03-31 22:15:00,50.1,26.7,29.88,ENE,71,2.0,3.0,40,0.00,CLR,,0.00,WeatherDisplay:10.37,2013-04-01 03:15:00,
2013-03-31 22:20:00,50.3,26.2,29.89,ENE,71,2.0,3.0,39,0.00,CLR,,0.00,WeatherDisplay:10.37,2013-04-01 03:20:00,
2013-03-31 22:25:00,50.4,26.4,29.89,ENE,71,1.0,4.0,39,0.00,CLR,,0.00,WeatherDisplay:10.37,2013-04-01 03:25:00,
2013-03-31 22:30:00,50.0,26.6,29.89,ENE,71,2.0,3.0,40,0.00,CLR,,0.00,WeatherDisplay:10.37,2013-04-01 03:30:00,
2013-03-31 22:40:00,49.3,26.5,29.89,ENE,71,2.0,3.0,41,0.00,CLR,,0.00,WeatherDisplay:10.37,2013-04-01 03:40:00,
2013-03-31 22:45:00,49.3,27.1,29.89,ENE,71,2.0,3.0,42,0.00,CLR,,0.00,WeatherDisplay:10.37,2013-04-01 03:45:00,
2013-03-31 22:50:00,49.0,26.9,29.89,ENE,71,0.0,3.0,42,0.00,CLR,,0.00,WeatherDisplay:10.37,2013-04-01 03:50:00,
2013-03-31 22:55:00,48.9,26.8,29.89,ENE,71,2.0,4.0,42,0.00,CLR,,0.00,WeatherDisplay:10.37,2013-04-01 03:55:00,
2013-03-31 23:00:00,49.0,26.8,29.90,ENE,71,1.0,3.0,42,0.00,CLR,,0.00,WeatherDisplay:10.37,2013-04-01 04:00:00,
2013-03-31 23:05:00,48.9,26.8,29.89,ENE,71,1.0,3.0,42,0.00,CLR,,0.00,WeatherDisplay:10.37,2013-04-01 04:05:00,
2013-03-31 23:10:00,49.1,26.4,29.89,ENE,71,1.0,3.0,41,0.00,CLR,,0.00,WeatherDisplay:10.37,2013-04-01 04:10:00,
2013-03-31 23:15:00,49.0,26.8,29.90,ENE,71,1.0,2.0,42,0.00,CLR,,0.00,WeatherDisplay:10.37,2013-04-01 04:15:00,
2013-03-31 23:20:00,48.8,27.8,29.90,ENE,71,1.0,2.0,44,0.00,CLR,,0.00,WeatherDisplay:10.37,2013-04-01 04:20:00,
2013-03-31 23:25:00,48.5,28.1,29.91,ENE,71,2.0,4.0,45,0.00,CLR,,0.00,WeatherDisplay:10.37,2013-04-01 04:25:00,
2013-03-31 23:30:00,48.4,28.0,29.91,ENE,71,1.0,3.0,45,0.00,CLR,,0.00,WeatherDisplay:10.37,2013-04-01 04:30:00,
2013-03-31 23:35:00,48.4,27.5,29.91,ENE,71,2.0,4.0,44,0.00,CLR,,0.00,WeatherDisplay:10.37,2013-04-01 04:35:00,
2013-03-31 23:40:00,48.4,28.0,29.91,ENE,71,1.0,3.0,45,0.00,CLR,,0.00,WeatherDisplay:10.37,2013-04-01 04:40:00,
2013-03-31 23:45:00,48.1,28.8,29.91,ENE,71,2.0,3.0,47,0.00,CLR,,0.00,WeatherDisplay:10.37,2013-04-01 04:45:00,
2013-03-31 23:50:00,47.9,28.6,29.92,NE,51,3.0,5.0,47,0.00,CLR,,0.00,WeatherDisplay:10.37,2013-04-01 04:50:00,
2013-03-31 23:55:00,47.9,29.6,29.92,NNE,12,3.0,5.0,49,0.00,CLR,,0.00,WeatherDisplay:10.37,2013-04-01 04:55:00,